THOR ABLESTAR DEB, 15783

Orbit data source: Space-Track

THOR ABLESTAR DEB, 15783 is space debris in LEO originally from a launch on Thu, 29 Jun 1961 UTC launched from the Air Force Eastern Test Range (AFETR). Debris objects in space refer to the collection of defunct objects orbiting the Earth. Examples of debris include non-operational satellites, rocket bodies, and fragments generated from explosions, collisions, or faulty payload assembly.

Loading next visibility...
Identifier
15783, 1961-015LG
Orbit
LEO
Country
Flag of USUS
Related business
Manufacturer
Unknown
Mission
Spacecraft
Bus & Motor
Unknown
Mass
Unknown
Launch date (UTC)
1961-06-29 (64 years ago)
Launch vehicle
Unknown
Launch site
Air Force Eastern Test Range (AFETR)
Object type
Payload
Rocket body
Debris
Shape & HBR
Unknown shape, 0.1 m
Radar Cross Section
Small (<0.1 m²)

Expand to show TLE details & history
Last TLE update: 18 hours ago

TLE from 18 hours ago
0 THOR ABLESTAR DEB
1 15783U 61015LG  25348.86088501  .00005079  00000-0  66795-3 0  9992
2 15783  67.0352 203.3297 0034413  14.4703   1.3279 14.80617912155506
Epoch: 2025-12-14T20:39Z
TLE epoch observation values (Epoch: 2025-12-14T20:39:40.464Z)
Latitude
14.51242°
Longitude
175.90622°
Altitude
604.727 km
Speed
7.572 km/s
True Right ascension
13h 58m 22s
True Declination
14° 25' 39"
Sunlit
Object was in daylight at epoch
Visualization orbit readout
Latitude
Unknown
Longitude
Unknown
Altitude
Unknown
Speed
Unknown
Apparent Right ascension
Unknown
Apparent Declination
Unknown
Sunlit
N/A
Visualization observer readout
Local Sidereal Time
13:00:55
Azimuth
Unknown
Elevation
Unknown
Doppler factor
Unknown
Orbital elements
Apogee altitude
649.773 km
Perigee altitude
601.569 km
Semi-major axis
7,003.808 km
Eccentricity
0.00344
Inclination
67.0352°
RAAN
203.3297°
Arg. of periapsis
14.4703°
True anomaly
1.33708°
Mean anomaly
1.3279°
Eccentric anomaly
1.33249°
Mean motion
3.7029 °/min
Orbital period
97.22 mins
BSTAR
0.00066795
Loading maneuver chart data...
Computing Atmospheric mass density...
Loading historical data...
Loading historical data...
Loading historical data...
Loading historical data...
Loading historical data...
Loading historical data...
Loading historical data...

Documentation

Showing up to 5 results
|